DMSP 5D-2 F11 DEB

Satellite information

Favourite Embed

Satellite Type and Status

DEBRISIN ORBIT

Key statistics

Satellite DMSP 5D-2 F11 DEB at a glance.

Uptime

12337

Days in orbit

Revolutions

≈ 14.4

Per day

Orbit

SSO

Sun Synchronous Orbit

Inclination

98.6

Latest

Satellite identification and parameters

Extended collection of information and parameters for DMSP 5D-2 F11 DEB.

Object identification

Identified? True

Debris? True

Object name: DMSP 5D-2 F11 DEB

International designator: 1991-082M

Object number (NORAD): 28300

Object ID (CCSDS): 28300

Country: UNITED STATES OF AMERICA (US)

Current information (Y/N): Y

RCS size: SMALL

Orbital parameters

Period: 99.986 minutes

Inclination: 98.5622 deg

SMA: 7135.946 km

Apoapsis: 763.393 km

Periapsis: 752.228 km

RAAN: 296.9531 deg

Eccentricy: 0.0007823

Argument of periapsis: 36.9392 deg

Mean anomaly: 94.2574 deg

Mean motion: 14.40208743 rev/day

Mean motion (dot): 0.00004873 rev/day2

B* drag term: 0.0015534049 1/REarth

Two-line elements (TLE)

Creation date: Sept. 7, 2025, 3:09 a.m.

Reference frame: TEME

Reference center: EARTH

Epoch: Sept. 6, 2025, 3:03 p.m. UTC

TLE line 0: 0 DMSP 5D-2 F11 DEB

TLE line 1: 1 28300U 91082M 25249.62740964 .00004873 00000-0 15534-2 0 9995

TLE line 2: 2 28300 98.5622 296.9531 0007823 36.9392 94.2574 14.40208743111528

Live tracking on map

Real-time ground track for satellite DMSP 5D-2 F11 DEB.

In-orbit conjunctions

A list of the most updated potential collisions computed for object DMSP 5D-2 F11 DEB.

Target Orbit TCA Probability of collision Miss distance Type
SL-12 DEB LEO 2025-05-21 05:23:47 0.00011131 559.0 (m) DEBRIS
SL-8 R/B LEO 2025-04-27 03:58:29 0.0003470785 573.0 (m) ROCKET BODY

Associated space launch

Military meteorological satellite

DMSP 5D-2 F11 DEB was lifted into orbit during the mission ‘Atlas E | DMSP-5D2 F11’, on board a Atlas E space rocket.

The launch took place on Nov. 28, 1991, 1:23 p.m. from Space Launch Complex 3W.

For more information about the launch, click the button.

Launch to space Atlas E | DMSP-5D2 F11
Atlas E | DMSP-5D2 F11

Agency: N/A

Status: Launch Successful

Launch date: Nov. 28, 1991, 1:23 p.m. UTC

Rocket: Atlas E

Launch pad: Space Launch Complex 3W

Location: Vandenberg SFB, CA, USA

...

Latest news about this satellite

There are no fresh news available about this satellite. Check back as we update our databases every day.


Newsletter sign-up

Weekly statistics, charts and insights to help you stay on top of the space industry.